Time,TemperatureF,DewpointF,PressureIn,WindDirection,WindDirectionDegrees,WindSpeedMPH,WindSpeedGustMPH,Humidity,HourlyPrecipIn,Conditions,Clouds,dailyrainin,SoftwareType,DateUTC
2013-01-24 00:03:00,8.9,0.5,30.39,NW,325,10.0,10.0,68,0.00,,---,0.00,VWS V14.01,2013-01-24 06:03:00,
2013-01-24 00:08:00,8.7,0.3,30.39,North,5,3.0,12.0,68,0.00,,---,0.00,VWS V14.01,2013-01-24 06:08:00,
2013-01-24 00:13:00,8.6,-0.1,30.40,North,355,3.0,12.0,67,0.00,,---,0.00,VWS V14.01,2013-01-24 06:13:00,
2013-01-24 00:18:00,8.6,-0.1,30.40,NNW,342,7.0,12.0,67,0.00,,---,0.00,VWS V14.01,2013-01-24 06:18:00,
2013-01-24 00:23:00,8.5,-0.2,30.41,WNW,302,2.0,10.0,67,0.00,,---,0.00,VWS V14.01,2013-01-24 06:23:00,
2013-01-24 00:28:00,8.4,-0.6,30.41,NNW,341,9.0,11.0,66,0.00,,---,0.00,VWS V14.01,2013-01-24 06:28:00,
2013-01-24 00:33:00,8.4,-0.3,30.41,NW,311,4.0,7.0,67,0.00,,---,0.00,VWS V14.01,2013-01-24 06:33:00,
2013-01-24 00:38:00,8.2,-0.2,30.42,NNW,344,6.0,10.0,68,0.00,,---,0.00,VWS V14.01,2013-01-24 06:38:00,
2013-01-24 00:43:00,8.1,-0.6,30.41,NNW,329,8.0,16.0,67,0.00,,---,0.00,VWS V14.01,2013-01-24 06:43:00,
2013-01-24 00:48:00,8.1,-0.6,30.42,NNE,27,6.0,12.0,67,0.00,,---,0.00,VWS V14.01,2013-01-24 06:48:00,
2013-01-24 00:53:00,8.0,-0.7,30.42,North,9,12.0,17.0,67,0.00,,---,0.00,VWS V14.01,2013-01-24 06:53:00,
2013-01-24 00:58:00,7.9,-0.8,30.42,NNW,340,7.0,10.0,67,0.00,,---,0.00,VWS V14.01,2013-01-24 06:58:00,
2013-01-24 01:02:00,7.8,-0.9,30.43,North,350,4.0,10.0,67,0.00,,---,0.00,VWS V14.01,2013-01-24 07:02:00,
2013-01-24 01:08:00,7.7,-1.0,30.43,North,11,7.0,13.0,67,0.00,,---,0.00,VWS V14.01,2013-01-24 07:08:00,
2013-01-24 01:12:00,7.7,-1.3,30.44,NNW,334,8.0,11.0,66,0.00,,---,0.00,VWS V14.01,2013-01-24 07:12:00,
2013-01-24 01:18:00,7.6,-1.0,30.45,North,355,1.0,8.0,67,0.00,,---,0.00,VWS V14.01,2013-01-24 07:18:00,
2013-01-24 01:22:00,7.6,-0.7,30.45,North,355,4.0,12.0,68,0.00,,---,0.00,VWS V14.01,2013-01-24 07:22:00,
2013-01-24 01:27:00,7.4,-1.2,30.45,North,360,8.0,16.0,67,0.00,,---,0.00,VWS V14.01,2013-01-24 07:27:00,
2013-01-24 01:32:00,7.3,-1.3,30.45,North,360,4.0,16.0,67,0.00,,---,0.00,VWS V14.01,2013-01-24 07:32:00,
2013-01-24 01:37:00,7.3,-1.0,30.45,North,355,1.0,11.0,68,0.00,,---,0.00,VWS V14.01,2013-01-24 07:37:00,
2013-01-24 01:42:00,7.2,-1.1,30.46,NNW,334,3.0,8.0,68,0.00,,---,0.00,VWS V14.01,2013-01-24 07:42:00,
2013-01-24 01:47:00,7.1,-1.2,30.47,NW,323,4.0,7.0,68,0.00,,---,0.00,VWS V14.01,2013-01-24 07:47:00,
2013-01-24 01:52:00,7.0,-1.3,30.47,NNW,331,3.0,7.0,68,0.00,,---,0.00,VWS V14.01,2013-01-24 07:52:00,
2013-01-24 01:57:00,6.9,-1.4,30.47,North,349,4.0,9.0,68,0.00,,---,0.00,VWS V14.01,2013-01-24 07:57:00,
2013-01-24 02:02:00,6.8,-1.5,30.47,NNW,338,1.0,9.0,68,0.00,,---,0.00,VWS V14.01,2013-01-24 08:02:00,
2013-01-24 02:07:00,6.8,-1.5,30.47,NNW,327,3.0,8.0,68,0.00,,---,0.00,VWS V14.01,2013-01-24 08:07:00,
2013-01-24 02:12:00,6.7,-1.6,30.48,NW,323,3.0,8.0,68,0.00,,---,0.00,VWS V14.01,2013-01-24 08:12:00,
2013-01-24 02:17:00,6.6,-1.7,30.48,NNW,327,2.0,7.0,68,0.00,,---,0.00,VWS V14.01,2013-01-24 08:17:00,
2013-01-24 02:22:00,6.5,-1.8,30.49,NW,323,6.0,7.0,68,0.00,,---,0.00,VWS V14.01,2013-01-24 08:22:00,
2013-01-24 02:27:00,6.4,-1.9,30.49,NW,323,1.0,7.0,68,0.00,,---,0.00,VWS V14.01,2013-01-24 08:27:00,
2013-01-24 02:32:00,6.3,-2.0,30.49,NW,323,2.0,6.0,68,0.00,,---,0.00,VWS V14.01,2013-01-24 08:32:00,
2013-01-24 02:37:00,6.1,-2.2,30.49,NW,322,4.0,8.0,68,0.00,,---,0.00,VWS V14.01,2013-01-24 08:37:00,
2013-01-24 02:42:00,6.0,-2.3,30.50,NNW,344,3.0,7.0,68,0.00,,---,0.00,VWS V14.01,2013-01-24 08:42:00,
2013-01-24 02:47:00,5.8,-2.5,30.50,NNW,329,3.0,7.0,68,0.00,,---,0.00,VWS V14.01,2013-01-24 08:47:00,
2013-01-24 02:52:00,5.8,-2.2,30.50,NNW,329,4.0,8.0,69,0.00,,---,0.00,VWS V14.01,2013-01-24 08:52:00,
2013-01-24 02:57:00,5.7,-2.6,30.51,NNW,327,4.0,5.0,68,0.00,,---,0.00,VWS V14.01,2013-01-24 08:57:00,
2013-01-24 03:02:00,5.6,-2.3,30.51,NNW,339,2.0,6.0,69,0.00,,---,0.00,VWS V14.01,2013-01-24 09:02:00,
2013-01-24 03:07:00,5.5,-2.5,30.51,North,355,5.0,7.0,69,0.00,,---,0.00,VWS V14.01,2013-01-24 09:07:00,
2013-01-24 03:12:00,5.4,-2.5,30.51,NW,318,2.0,5.0,69,0.00,,---,0.00,VWS V14.01,2013-01-24 09:12:00,
2013-01-24 03:17:00,5.4,-2.5,30.51,NNW,340,4.0,7.0,69,0.00,,---,0.00,VWS V14.01,2013-01-24 09:17:00,
2013-01-24 03:22:00,5.4,-2.5,30.51,NNW,335,4.0,6.0,69,0.00,,---,0.00,VWS V14.01,2013-01-24 09:22:00,
2013-01-24 03:27:00,5.3,-2.6,30.53,NW,311,3.0,6.0,69,0.00,,---,0.00,VWS V14.01,2013-01-24 09:27:00,
2013-01-24 03:32:00,5.3,-2.3,30.52,NW,325,5.0,5.0,70,0.00,,---,0.00,VWS V14.01,2013-01-24 09:32:00,
2013-01-24 03:37:00,5.2,-2.7,30.53,NNW,335,3.0,6.0,69,0.00,,---,0.00,VWS V14.01,2013-01-24 09:37:00,
2013-01-24 03:42:00,5.1,-2.8,30.53,NNW,339,4.0,5.0,69,0.00,,---,0.00,VWS V14.01,2013-01-24 09:42:00,
2013-01-24 03:47:00,5.0,-2.6,30.54,NW,323,1.0,9.0,70,0.00,,---,0.00,VWS V14.01,2013-01-24 09:47:00,
2013-01-24 03:52:00,5.0,-2.6,30.54,NW,321,5.0,6.0,70,0.00,,---,0.00,VWS V14.01,2013-01-24 09:52:00,
2013-01-24 03:57:00,4.9,-2.7,30.54,NW,324,2.0,6.0,70,0.00,,---,0.00,VWS V14.01,2013-01-24 09:57:00,
2013-01-24 04:02:00,4.8,-2.8,30.54,NNW,342,5.0,7.0,70,0.00,,---,0.00,VWS V14.01,2013-01-24 10:02:00,
2013-01-24 04:07:00,4.8,-2.8,30.55,NW,320,4.0,7.0,70,0.00,,---,0.00,VWS V14.01,2013-01-24 10:07:00,
2013-01-24 04:12:00,4.7,-2.6,30.55,NNW,329,7.0,9.0,71,0.00,,---,0.00,VWS V14.01,2013-01-24 10:12:00,
2013-01-24 04:17:00,4.7,-2.9,30.55,NNW,329,2.0,6.0,70,0.00,,---,0.00,VWS V14.01,2013-01-24 10:17:00,
2013-01-24 04:22:00,4.6,-3.0,30.55,NW,324,7.0,9.0,70,0.00,,---,0.00,VWS V14.01,2013-01-24 10:22:00,
2013-01-24 04:27:00,4.5,-3.1,30.55,NW,320,5.0,8.0,70,0.00,,---,0.00,VWS V14.01,2013-01-24 10:27:00,
2013-01-24 04:32:00,4.4,-3.2,30.56,NW,323,3.0,6.0,70,0.00,,---,0.00,VWS V14.01,2013-01-24 10:32:00,
2013-01-24 04:37:00,4.3,-3.3,30.56,NW,320,4.0,7.0,70,0.00,,---,0.00,VWS V14.01,2013-01-24 10:37:00,
2013-01-24 04:42:00,4.3,-3.3,30.56,NW,326,5.0,8.0,70,0.00,,---,0.00,VWS V14.01,2013-01-24 10:42:00,
2013-01-24 04:47:00,4.2,-3.1,30.56,NNW,329,4.0,7.0,71,0.00,,---,0.00,VWS V14.01,2013-01-24 10:47:00,
2013-01-24 04:52:00,4.2,-3.1,30.57,NNW,327,9.0,9.0,71,0.00,,---,0.00,VWS V14.01,2013-01-24 10:52:00,
2013-01-24 04:57:00,4.1,-3.2,30.57,NW,325,5.0,9.0,71,0.00,,---,0.00,VWS V14.01,2013-01-24 10:57:00,
2013-01-24 05:02:00,4.0,-3.3,30.57,North,355,9.0,9.0,71,0.00,,---,0.00,VWS V14.01,2013-01-24 11:02:00,
2013-01-24 05:07:00,4.0,-3.3,30.57,NW,323,5.0,8.0,71,0.00,,---,0.00,VWS V14.01,2013-01-24 11:07:00,
2013-01-24 05:12:00,4.0,-3.3,30.57,NNW,348,5.0,9.0,71,0.00,,---,0.00,VWS V14.01,2013-01-24 11:12:00,
2013-01-24 05:17:00,4.0,-3.3,30.58,NNW,339,4.0,10.0,71,0.00,,---,0.00,VWS V14.01,2013-01-24 11:17:00,
2013-01-24 05:22:00,4.0,-3.3,30.59,NW,317,5.0,8.0,71,0.00,,---,0.00,VWS V14.01,2013-01-24 11:22:00,
2013-01-24 05:27:00,4.0,-3.3,30.59,NW,323,7.0,8.0,71,0.00,,---,0.00,VWS V14.01,2013-01-24 11:27:00,
2013-01-24 05:32:00,3.9,-3.4,30.59,North,350,5.0,8.0,71,0.00,,---,0.00,VWS V14.01,2013-01-24 11:32:00,
2013-01-24 05:37:00,3.9,-3.4,30.59,NNW,331,3.0,8.0,71,0.00,,---,0.00,VWS V14.01,2013-01-24 11:37:00,
2013-01-24 05:42:00,3.8,-3.2,30.60,NNW,333,5.0,8.0,72,0.00,,---,0.00,VWS V14.01,2013-01-24 11:42:00,
2013-01-24 05:47:00,3.8,-3.2,30.60,North,355,8.0,10.0,72,0.00,,---,0.00,VWS V14.01,2013-01-24 11:47:00,
2013-01-24 05:52:00,3.7,-3.6,30.60,NNW,332,4.0,8.0,71,0.00,,---,0.00,VWS V14.01,2013-01-24 11:52:00,
2013-01-24 05:57:00,3.7,-3.3,30.60,NNW,340,1.0,6.0,72,0.00,,---,0.00,VWS V14.01,2013-01-24 11:57:00,
2013-01-24 06:02:00,3.7,-3.3,30.60,North,355,4.0,8.0,72,0.00,,---,0.00,VWS V14.01,2013-01-24 12:02:00,
2013-01-24 06:07:00,3.6,-3.7,30.60,North,351,2.0,4.0,71,0.00,,---,0.00,VWS V14.01,2013-01-24 12:07:00,
2013-01-24 06:12:00,3.6,-3.4,30.61,NW,325,1.0,8.0,72,0.00,,---,0.00,VWS V14.01,2013-01-24 12:12:00,
2013-01-24 06:17:00,3.5,-3.5,30.61,NW,326,1.0,7.0,72,0.00,,---,0.00,VWS V14.01,2013-01-24 12:17:00,
2013-01-24 06:22:00,3.4,-3.6,30.61,North,355,6.0,6.0,72,0.00,,---,0.00,VWS V14.01,2013-01-24 12:22:00,
2013-01-24 06:27:00,3.3,-3.7,30.62,NNW,327,4.0,6.0,72,0.00,,---,0.00,VWS V14.01,2013-01-24 12:27:00,
2013-01-24 06:32:00,3.3,-3.4,30.61,NW,326,3.0,6.0,73,0.00,,---,0.00,VWS V14.01,2013-01-24 12:32:00,
2013-01-24 06:37:00,3.3,-3.7,30.61,NNW,330,0.0,4.0,72,0.00,,---,0.00,VWS V14.01,2013-01-24 12:37:00,
2013-01-24 06:42:00,3.2,-3.5,30.61,NNW,348,2.0,9.0,73,0.00,,---,0.00,VWS V14.01,2013-01-24 12:42:00,
2013-01-24 06:47:00,3.1,-3.9,30.60,NNW,331,4.0,8.0,72,0.00,,---,0.00,VWS V14.01,2013-01-24 12:47:00,
2013-01-24 06:52:00,3.0,-4.0,30.61,NNW,335,3.0,8.0,72,0.00,,---,0.00,VWS V14.01,2013-01-24 12:52:00,
2013-01-24 06:57:00,2.9,-3.8,30.62,NNW,340,6.0,8.0,73,0.00,,---,0.00,VWS V14.01,2013-01-24 12:57:00,
2013-01-24 07:02:00,2.9,-4.1,30.62,NNW,330,5.0,6.0,72,0.00,,---,0.00,VWS V14.01,2013-01-24 13:02:00,
2013-01-24 07:07:00,2.8,-3.9,30.62,NNW,347,1.0,7.0,73,0.00,,---,0.00,VWS V14.01,2013-01-24 13:07:00,
2013-01-24 07:12:00,2.9,-3.8,30.62,NNW,330,3.0,7.0,73,0.00,,---,0.00,VWS V14.01,2013-01-24 13:12:00,
2013-01-24 07:17:00,2.8,-3.9,30.61,North,355,3.0,7.0,73,0.00,,---,0.00,VWS V14.01,2013-01-24 13:17:00,
2013-01-24 07:22:00,2.8,-3.9,30.61,NW,326,4.0,6.0,73,0.00,,---,0.00,VWS V14.01,2013-01-24 13:22:00,
2013-01-24 07:27:00,2.8,-3.6,30.61,NW,326,3.0,7.0,74,0.00,,---,0.00,VWS V14.01,2013-01-24 13:27:00,
2013-01-24 07:32:00,2.8,-3.6,30.62,NNW,333,3.0,7.0,74,0.00,,---,0.00,VWS V14.01,2013-01-24 13:32:00,
2013-01-24 07:37:00,2.9,-3.5,30.61,NNW,332,6.0,8.0,74,0.00,,---,0.00,VWS V14.01,2013-01-24 13:37:00,
2013-01-24 07:42:00,2.8,-3.6,30.62,NNW,336,5.0,8.0,74,0.00,,---,0.00,VWS V14.01,2013-01-24 13:42:00,
2013-01-24 07:47:00,2.8,-3.9,30.62,North,360,6.0,10.0,73,0.00,,---,0.00,VWS V14.01,2013-01-24 13:47:00,
2013-01-24 07:52:00,2.9,-3.8,30.62,NNW,340,2.0,8.0,73,0.00,,---,0.00,VWS V14.01,2013-01-24 13:52:00,
2013-01-24 07:57:00,2.9,-3.5,30.63,NNW,327,4.0,10.0,74,0.00,,---,0.00,VWS V14.01,2013-01-24 13:57:00,
2013-01-24 08:02:00,3.0,-3.4,30.63,NNW,329,4.0,9.0,74,0.00,,---,0.00,VWS V14.01,2013-01-24 14:02:00,
2013-01-24 08:07:00,3.2,-3.2,30.63,NNW,335,3.0,6.0,74,0.00,,---,0.00,VWS V14.01,2013-01-24 14:07:00,
2013-01-24 08:12:00,3.3,-3.1,30.64,NNW,339,1.0,7.0,74,0.00,,---,0.00,VWS V14.01,2013-01-24 14:12:00,
2013-01-24 08:17:00,3.4,-3.3,30.64,NNW,348,6.0,8.0,73,0.00,,---,0.00,VWS V14.01,2013-01-24 14:17:00,
2013-01-24 08:22:00,3.5,-2.9,30.64,NNW,333,2.0,8.0,74,0.00,,---,0.00,VWS V14.01,2013-01-24 14:22:00,
2013-01-24 08:27:00,3.7,-2.7,30.64,NNW,329,3.0,9.0,74,0.00,,---,0.00,VWS V14.01,2013-01-24 14:27:00,
2013-01-24 08:32:00,3.8,-2.6,30.65,NNW,345,3.0,9.0,74,0.00,,---,0.00,VWS V14.01,2013-01-24 14:32:00,
2013-01-24 08:37:00,4.0,-2.4,30.65,NW,326,1.0,11.0,74,0.00,,---,0.00,VWS V14.01,2013-01-24 14:37:00,
2013-01-24 08:42:00,4.2,-2.2,30.66,NNW,331,6.0,13.0,74,0.00,,---,0.00,VWS V14.01,2013-01-24 14:42:00,
2013-01-24 08:47:00,4.3,-2.1,30.66,NNW,346,2.0,9.0,74,0.00,,---,0.00,VWS V14.01,2013-01-24 14:47:00,
2013-01-24 08:52:00,4.5,-1.9,30.66,NNW,331,4.0,10.0,74,0.00,,---,0.00,VWS V14.01,2013-01-24 14:52:00,
2013-01-24 08:57:00,4.6,-1.9,30.66,NW,321,8.0,8.0,74,0.00,,---,0.00,VWS V14.01,2013-01-24 14:57:00,
2013-01-24 09:02:00,4.8,-1.6,30.66,NW,326,7.0,12.0,74,0.00,,---,0.00,VWS V14.01,2013-01-24 15:02:00,
2013-01-24 09:07:00,4.9,-1.6,30.65,NNW,332,4.0,8.0,74,0.00,,---,0.00,VWS V14.01,2013-01-24 15:07:00,
2013-01-24 09:12:00,5.1,-1.4,30.66,NNW,342,7.0,7.0,74,0.00,,---,0.00,VWS V14.01,2013-01-24 15:12:00,
2013-01-24 09:17:00,5.3,-1.5,30.66,North,355,1.0,7.0,73,0.00,,---,0.00,VWS V14.01,2013-01-24 15:17:00,
2013-01-24 09:22:00,5.5,-1.0,30.66,NW,326,4.0,8.0,74,0.00,,---,0.00,VWS V14.01,2013-01-24 15:22:00,
2013-01-24 09:27:00,5.8,-0.7,30.66,NNW,332,4.0,6.0,74,0.00,,---,0.00,VWS V14.01,2013-01-24 15:27:00,
2013-01-24 09:32:00,6.1,-0.4,30.66,NNW,339,3.0,6.0,74,0.00,,---,0.00,VWS V14.01,2013-01-24 15:32:00,
2013-01-24 09:37:00,6.4,-0.1,30.66,NNW,327,4.0,6.0,74,0.00,,---,0.00,VWS V14.01,2013-01-24 15:37:00,
2013-01-24 09:42:00,6.6,-0.2,30.66,NNW,346,6.0,8.0,73,0.00,,---,0.00,VWS V14.01,2013-01-24 15:42:00,
2013-01-24 09:47:00,6.9,0.4,30.66,NNW,333,2.0,7.0,74,0.00,,---,0.00,VWS V14.01,2013-01-24 15:47:00,
2013-01-24 09:52:00,7.2,0.7,30.66,NNW,337,2.0,5.0,74,0.00,,---,0.00,VWS V14.01,2013-01-24 15:52:00,
2013-01-24 09:57:00,7.6,1.1,30.66,NNW,333,4.0,5.0,74,0.00,,---,0.00,VWS V14.01,2013-01-24 15:57:00,
2013-01-24 10:02:00,7.9,1.1,30.66,NW,326,4.0,5.0,73,0.00,,---,0.00,VWS V14.01,2013-01-24 16:02:00,
2013-01-24 10:07:00,8.1,1.2,30.66,NW,322,3.0,7.0,73,0.00,,---,0.00,VWS V14.01,2013-01-24 16:07:00,
2013-01-24 10:12:00,8.4,1.5,30.66,NNW,334,3.0,6.0,73,0.00,,---,0.00,VWS V14.01,2013-01-24 16:12:00,
2013-01-24 10:17:00,8.8,1.9,30.66,NW,325,3.0,6.0,73,0.00,,---,0.00,VWS V14.01,2013-01-24 16:17:00,
2013-01-24 10:22:00,9.1,1.9,30.66,North,349,2.0,4.0,72,0.00,,---,0.00,VWS V14.01,2013-01-24 16:22:00,
2013-01-24 10:27:00,9.4,2.2,30.66,NNW,344,2.0,5.0,72,0.00,,---,0.00,VWS V14.01,2013-01-24 16:27:00,
2013-01-24 10:32:00,9.8,3.2,30.66,NNW,341,4.0,6.0,74,0.00,,---,0.00,VWS V14.01,2013-01-24 16:32:00,
2013-01-24 10:37:00,10.0,3.1,30.66,NNW,342,1.0,1.0,73,0.00,,---,0.00,VWS V14.01,2013-01-24 16:37:00,
2013-01-24 10:42:00,10.4,3.2,30.66,NNW,342,3.0,4.0,72,0.00,,---,0.00,VWS V14.01,2013-01-24 16:42:00,
2013-01-24 10:47:00,10.5,2.7,30.66,NNW,346,2.0,5.0,70,0.00,,---,0.00,VWS V14.01,2013-01-24 16:47:00,
2013-01-24 10:52:00,10.6,3.1,30.66,NNW,347,2.0,5.0,71,0.00,,---,0.00,VWS V14.01,2013-01-24 16:52:00,
2013-01-24 10:57:00,10.8,3.3,30.66,NNW,338,2.0,5.0,71,0.00,,---,0.00,VWS V14.01,2013-01-24 16:57:00,
2013-01-24 11:02:00,11.2,4.0,30.65,NNW,329,4.0,4.0,72,0.00,,---,0.00,VWS V14.01,2013-01-24 17:02:00,
2013-01-24 11:07:00,11.6,4.0,30.65,NNW,330,2.0,4.0,71,0.00,,---,0.00,VWS V14.01,2013-01-24 17:07:00,
2013-01-24 11:12:00,11.8,4.2,30.65,NNW,331,3.0,4.0,71,0.00,,---,0.00,VWS V14.01,2013-01-24 17:12:00,
2013-01-24 11:17:00,12.0,4.4,30.65,NNW,332,1.0,2.0,71,0.00,,---,0.00,VWS V14.01,2013-01-24 17:17:00,
2013-01-24 11:22:00,12.3,4.7,30.65,NNW,334,4.0,5.0,71,0.00,,---,0.00,VWS V14.01,2013-01-24 17:22:00,
2013-01-24 11:27:00,12.4,4.5,30.64,NNW,335,0.0,0.0,70,0.00,,---,0.00,VWS V14.01,2013-01-24 17:27:00,
2013-01-24 11:32:00,12.6,5.0,30.63,NNW,335,2.0,3.0,71,0.00,,---,0.00,VWS V14.01,2013-01-24 17:32:00,
2013-01-24 11:37:00,12.8,4.6,30.63,NNW,337,3.0,4.0,69,0.00,,---,0.00,VWS V14.01,2013-01-24 17:37:00,
2013-01-24 11:42:00,13.0,4.4,30.63,NNW,337,0.0,4.0,68,0.00,,---,0.00,VWS V14.01,2013-01-24 17:42:00,
2013-01-24 11:47:00,13.2,5.3,30.63,NNW,337,4.0,4.0,70,0.00,,---,0.00,VWS V14.01,2013-01-24 17:47:00,
2013-01-24 11:52:00,13.4,5.5,30.63,NNW,337,1.0,4.0,70,0.00,,---,0.00,VWS V14.01,2013-01-24 17:52:00,
2013-01-24 11:57:00,13.6,5.7,30.62,NNW,336,3.0,4.0,70,0.00,,---,0.00,VWS V14.01,2013-01-24 17:57:00,
2013-01-24 12:02:00,13.9,5.9,30.62,NNW,335,3.0,4.0,70,0.00,,---,0.00,VWS V14.01,2013-01-24 18:02:00,
2013-01-24 12:07:00,14.2,6.2,30.62,NNW,335,2.0,3.0,70,0.00,,---,0.00,VWS V14.01,2013-01-24 18:07:00,
2013-01-24 12:12:00,14.4,6.1,30.62,NW,325,1.0,6.0,69,0.00,,---,0.00,VWS V14.01,2013-01-24 18:12:00,
2013-01-24 12:17:00,14.7,5.8,30.62,NW,325,0.0,4.0,67,0.00,,---,0.00,VWS V14.01,2013-01-24 18:17:00,
2013-01-24 12:22:00,14.9,6.3,30.62,NW,325,3.0,4.0,68,0.00,,---,0.00,VWS V14.01,2013-01-24 18:22:00,
2013-01-24 12:27:00,15.2,6.6,30.61,NW,325,1.0,3.0,68,0.00,,---,0.00,VWS V14.01,2013-01-24 18:27:00,
2013-01-24 12:32:00,15.4,6.4,30.61,NW,325,0.0,4.0,67,0.00,,---,0.00,VWS V14.01,2013-01-24 18:32:00,
2013-01-24 12:37:00,15.8,7.1,30.60,NW,324,2.0,4.0,68,0.00,,---,0.00,VWS V14.01,2013-01-24 18:37:00,
2013-01-24 12:42:00,16.0,7.0,30.60,NW,324,1.0,3.0,67,0.00,,---,0.00,VWS V14.01,2013-01-24 18:42:00,
2013-01-24 12:47:00,16.3,7.3,30.60,NW,324,0.0,2.0,67,0.00,,---,0.00,VWS V14.01,2013-01-24 18:47:00,
2013-01-24 12:52:00,16.5,6.8,30.61,NW,324,0.0,2.0,65,0.00,,---,0.00,VWS V14.01,2013-01-24 18:52:00,
2013-01-24 12:57:00,16.6,6.6,30.60,NW,324,0.0,2.0,64,0.00,,---,0.00,VWS V14.01,2013-01-24 18:57:00,
2013-01-24 13:02:00,16.7,7.0,30.60,NW,324,2.0,2.0,65,0.00,,---,0.00,VWS V14.01,2013-01-24 19:02:00,
2013-01-24 13:07:00,16.9,7.2,30.60,NW,324,0.0,0.0,65,0.00,,---,0.00,VWS V14.01,2013-01-24 19:07:00,
2013-01-24 13:12:00,17.1,7.0,30.60,NW,324,0.0,1.0,64,0.00,,---,0.00,VWS V14.01,2013-01-24 19:12:00,
2013-01-24 13:17:00,17.2,6.8,30.59,NW,324,0.0,2.0,63,0.00,,---,0.00,VWS V14.01,2013-01-24 19:17:00,
2013-01-24 13:22:00,17.2,7.1,30.59,NW,324,1.0,2.0,64,0.00,,---,0.00,VWS V14.01,2013-01-24 19:22:00,
2013-01-24 13:27:00,17.3,7.2,30.59,NW,324,0.0,0.0,64,0.00,,---,0.00,VWS V14.01,2013-01-24 19:27:00,
2013-01-24 13:32:00,17.3,6.5,30.59,NW,324,0.0,0.0,62,0.00,,---,0.00,VWS V14.01,2013-01-24 19:32:00,
2013-01-24 13:37:00,17.3,6.5,30.59,NW,324,0.0,0.0,62,0.00,,---,0.00,VWS V14.01,2013-01-24 19:37:00,
2013-01-24 13:42:00,17.4,6.6,30.59,NW,324,2.0,3.0,62,0.00,,---,0.00,VWS V14.01,2013-01-24 19:42:00,
2013-01-24 13:47:00,17.6,7.2,30.59,NW,323,2.0,3.0,63,0.00,,---,0.00,VWS V14.01,2013-01-24 19:47:00,
2013-01-24 13:52:00,17.9,7.4,30.58,NW,323,1.0,2.0,63,0.00,,---,0.00,VWS V14.01,2013-01-24 19:52:00,
2013-01-24 13:57:00,18.0,6.8,30.58,NW,323,0.0,1.0,61,0.00,,---,0.00,VWS V14.01,2013-01-24 19:57:00,
2013-01-24 14:02:00,18.2,7.0,30.58,NW,323,0.0,0.0,61,0.00,,---,0.00,VWS V14.01,2013-01-24 20:02:00,
2013-01-24 14:07:00,18.3,7.5,30.59,NW,312,4.0,5.0,62,0.00,,---,0.00,VWS V14.01,2013-01-24 20:07:00,
2013-01-24 14:12:00,18.3,7.5,30.58,NW,309,0.0,0.0,62,0.00,,---,0.00,VWS V14.01,2013-01-24 20:12:00,
2013-01-24 14:17:00,18.4,7.6,30.58,South,175,0.0,4.0,62,0.00,,---,0.00,VWS V14.01,2013-01-24 20:17:00,
2013-01-24 14:22:00,18.5,8.0,30.58,South,175,0.0,4.0,63,0.00,,---,0.00,VWS V14.01,2013-01-24 20:22:00,
2013-01-24 14:27:00,18.5,8.0,30.58,South,176,0.0,5.0,63,0.00,,---,0.00,VWS V14.01,2013-01-24 20:27:00,
2013-01-24 14:32:00,18.5,8.4,30.58,South,181,3.0,5.0,64,0.00,,---,0.00,VWS V14.01,2013-01-24 20:32:00,
2013-01-24 14:37:00,18.5,8.4,30.58,South,181,0.0,3.0,64,0.00,,---,0.00,VWS V14.01,2013-01-24 20:37:00,
2013-01-24 14:42:00,18.6,8.8,30.58,South,182,4.0,6.0,65,0.00,,---,0.00,VWS V14.01,2013-01-24 20:42:00,
2013-01-24 14:46:00,18.6,8.8,30.58,South,182,3.0,3.0,65,0.00,,---,0.00,VWS V14.01,2013-01-24 20:46:00,
2013-01-24 14:51:00,18.6,9.1,30.58,South,181,0.0,4.0,66,0.00,,---,0.00,VWS V14.01,2013-01-24 20:51:00,
2013-01-24 14:56:00,18.6,9.1,30.57,South,181,2.0,2.0,66,0.00,,---,0.00,VWS V14.01,2013-01-24 20:56:00,
2013-01-24 15:01:00,18.5,9.1,30.57,South,181,0.0,3.0,66,0.00,,---,0.00,VWS V14.01,2013-01-24 21:01:00,
2013-01-24 15:06:00,18.6,9.5,30.57,South,181,0.0,3.0,67,0.00,,---,0.00,VWS V14.01,2013-01-24 21:06:00,
2013-01-24 15:11:00,18.6,9.5,30.57,South,181,0.0,0.0,67,0.00,,---,0.00,VWS V14.01,2013-01-24 21:11:00,
2013-01-24 15:16:00,18.6,9.8,30.57,South,181,0.0,3.0,68,0.00,,---,0.00,VWS V14.01,2013-01-24 21:16:00,
2013-01-24 15:21:00,18.6,9.8,30.57,South,181,1.0,3.0,68,0.00,,---,0.00,VWS V14.01,2013-01-24 21:21:00,
2013-01-24 15:26:00,18.7,9.9,30.57,South,181,3.0,3.0,68,0.00,,---,0.00,VWS V14.01,2013-01-24 21:26:00,
2013-01-24 15:31:00,18.7,9.9,30.57,South,171,5.0,6.0,68,0.00,,---,0.00,VWS V14.01,2013-01-24 21:31:00,
2013-01-24 15:36:00,18.7,9.9,30.57,SSE,166,4.0,7.0,68,0.00,,---,0.00,VWS V14.01,2013-01-24 21:36:00,
2013-01-24 15:41:00,18.6,9.8,30.57,South,182,3.0,5.0,68,0.00,,---,0.00,VWS V14.01,2013-01-24 21:41:00,
2013-01-24 15:46:00,18.6,10.1,30.57,South,180,2.0,5.0,69,0.00,,---,0.00,VWS V14.01,2013-01-24 21:46:00,
2013-01-24 15:51:00,18.6,10.1,30.57,SSW,194,3.0,6.0,69,0.00,,---,0.00,VWS V14.01,2013-01-24 21:51:00,
2013-01-24 15:56:00,18.5,10.0,30.57,South,186,6.0,6.0,69,0.00,,---,0.00,VWS V14.01,2013-01-24 21:56:00,
2013-01-24 16:01:00,18.5,10.0,30.57,South,183,0.0,2.0,69,0.00,,---,0.00,VWS V14.01,2013-01-24 22:01:00,
2013-01-24 16:06:00,18.4,10.3,30.56,South,182,5.0,6.0,70,0.00,,---,0.00,VWS V14.01,2013-01-24 22:06:00,
2013-01-24 16:11:00,18.4,10.3,30.55,South,182,0.0,2.0,70,0.00,,---,0.00,VWS V14.01,2013-01-24 22:11:00,
2013-01-24 16:16:00,18.3,10.2,30.56,South,176,2.0,6.0,70,0.00,,---,0.00,VWS V14.01,2013-01-24 22:16:00,
2013-01-24 16:21:00,18.3,10.2,30.56,South,177,2.0,8.0,70,0.00,,---,0.00,VWS V14.01,2013-01-24 22:21:00,
2013-01-24 16:26:00,18.2,10.1,30.56,South,175,4.0,6.0,70,0.00,,---,0.00,VWS V14.01,2013-01-24 22:26:00,
2013-01-24 16:31:00,18.2,10.1,30.55,South,175,4.0,6.0,70,0.00,,---,0.00,VWS V14.01,2013-01-24 22:31:00,
2013-01-24 16:36:00,18.1,10.0,30.55,South,176,1.0,5.0,70,0.00,,---,0.00,VWS V14.01,2013-01-24 22:36:00,
2013-01-24 16:41:00,18.1,10.3,30.55,South,177,0.0,4.0,71,0.00,,---,0.00,VWS V14.01,2013-01-24 22:41:00,
2013-01-24 16:46:00,18.1,10.3,30.54,South,177,0.0,1.0,71,0.00,,---,0.00,VWS V14.01,2013-01-24 22:46:00,
2013-01-24 16:51:00,18.1,10.3,30.54,South,169,5.0,7.0,71,0.00,,---,0.00,VWS V14.01,2013-01-24 22:51:00,
2013-01-24 16:56:00,18.0,10.2,30.54,South,169,2.0,5.0,71,0.00,,---,0.00,VWS V14.01,2013-01-24 22:56:00,
2013-01-24 17:01:00,18.0,10.2,30.55,SSE,168,1.0,4.0,71,0.00,,---,0.00,VWS V14.01,2013-01-24 23:01:00,
2013-01-24 17:06:00,18.0,10.2,30.54,SSE,168,5.0,5.0,71,0.00,,---,0.00,VWS V14.01,2013-01-24 23:06:00,
2013-01-24 17:11:00,18.0,10.2,30.54,SSE,168,2.0,2.0,71,0.00,,---,0.00,VWS V14.01,2013-01-24 23:11:00,
2013-01-24 17:16:00,18.0,10.2,30.55,SSE,168,0.0,0.0,71,0.00,,---,0.00,VWS V14.01,2013-01-24 23:16:00,
2013-01-24 17:21:00,18.0,10.2,30.55,SSE,168,2.0,5.0,71,0.00,,---,0.00,VWS V14.01,2013-01-24 23:21:00,
2013-01-24 17:26:00,18.0,9.9,30.55,SSE,168,2.0,5.0,70,0.00,,---,0.00,VWS V14.01,2013-01-24 23:26:00,
2013-01-24 17:31:00,18.0,10.2,30.54,SSE,168,0.0,0.0,71,0.00,,---,0.00,VWS V14.01,2013-01-24 23:31:00,
2013-01-24 17:36:00,18.0,9.9,30.54,SSE,168,0.0,0.0,70,0.00,,---,0.00,VWS V14.01,2013-01-24 23:36:00,
2013-01-24 17:41:00,18.0,10.2,30.53,SSE,168,0.0,2.0,71,0.00,,---,0.00,VWS V14.01,2013-01-24 23:41:00,
2013-01-24 17:46:00,18.0,10.2,30.53,SSE,168,1.0,2.0,71,0.00,,---,0.00,VWS V14.01,2013-01-24 23:46:00,
2013-01-24 17:51:00,18.0,9.9,30.53,SSE,168,0.0,2.0,70,0.00,,---,0.00,VWS V14.01,2013-01-24 23:51:00,
2013-01-24 17:56:00,18.0,10.2,30.53,SSE,168,0.0,0.0,71,0.00,,---,0.00,VWS V14.01,2013-01-24 23:56:00,
2013-01-24 18:01:00,18.0,9.9,30.53,SSE,168,2.0,4.0,70,0.00,,---,0.00,VWS V14.01,2013-01-25 00:01:00,
2013-01-24 18:06:00,18.0,10.2,30.53,SSE,168,0.0,0.0,71,0.00,,---,0.00,VWS V14.01,2013-01-25 00:06:00,
2013-01-24 18:11:00,18.1,10.0,30.53,SSE,168,0.0,2.0,70,0.00,,---,0.00,VWS V14.01,2013-01-25 00:11:00,
2013-01-24 18:16:00,18.1,10.3,30.53,SSE,168,0.0,0.0,71,0.00,,---,0.00,VWS V14.01,2013-01-25 00:16:00,
2013-01-24 18:21:00,18.1,10.3,30.52,SSE,168,0.0,0.0,71,0.00,,---,0.00,VWS V14.01,2013-01-25 00:21:00,
2013-01-24 18:26:00,18.2,10.4,30.52,SSE,168,0.0,0.0,71,0.00,,---,0.00,VWS V14.01,2013-01-25 00:26:00,
2013-01-24 18:31:00,18.2,10.1,30.52,SSE,168,2.0,4.0,70,0.00,,---,0.00,VWS V14.01,2013-01-25 00:31:00,
2013-01-24 18:36:00,18.2,10.1,30.52,SSE,168,0.0,0.0,70,0.00,,---,0.00,VWS V14.01,2013-01-25 00:36:00,
2013-01-24 18:41:00,18.3,10.2,30.51,SSE,168,1.0,4.0,70,0.00,,---,0.00,VWS V14.01,2013-01-25 00:41:00,
2013-01-24 18:46:00,18.4,10.3,30.50,SSE,168,0.0,0.0,70,0.00,,---,0.00,VWS V14.01,2013-01-25 00:46:00,
2013-01-24 18:51:00,18.4,10.3,30.50,SSE,168,0.0,0.0,70,0.00,,---,0.00,VWS V14.01,2013-01-25 00:51:00,
2013-01-24 18:56:00,18.5,10.7,30.50,SSE,168,0.0,4.0,71,0.00,,---,0.00,VWS V14.01,2013-01-25 00:56:00,
2013-01-24 19:01:00,18.5,10.4,30.50,SSE,167,4.0,4.0,70,0.00,,---,0.00,VWS V14.01,2013-01-25 01:01:00,
2013-01-24 19:06:00,18.6,10.5,30.51,SSE,167,0.0,4.0,70,0.00,,---,0.00,VWS V14.01,2013-01-25 01:06:00,
2013-01-24 19:11:00,18.6,10.5,30.51,SSE,167,0.0,0.0,70,0.00,,---,0.00,VWS V14.01,2013-01-25 01:11:00,
2013-01-24 19:16:00,18.7,10.6,30.49,SSE,167,0.0,0.0,70,0.00,,---,0.00,VWS V14.01,2013-01-25 01:16:00,
2013-01-24 19:21:00,18.7,10.9,30.48,SSE,162,5.0,5.0,71,0.00,,---,0.00,VWS V14.01,2013-01-25 01:21:00,
2013-01-24 19:26:00,18.8,10.6,30.48,SSE,159,1.0,6.0,70,0.00,,---,0.00,VWS V14.01,2013-01-25 01:26:00,
2013-01-24 19:31:00,18.8,10.6,30.48,SSE,155,0.0,0.0,70,0.00,,---,0.00,VWS V14.01,2013-01-25 01:31:00,
2013-01-24 19:36:00,18.9,10.8,30.47,SE,128,5.0,5.0,70,0.00,,---,0.00,VWS V14.01,2013-01-25 01:36:00,
2013-01-24 19:41:00,18.9,10.4,30.46,ESE,113,2.0,6.0,69,0.00,,---,0.00,VWS V14.01,2013-01-25 01:41:00,
2013-01-24 19:46:00,19.0,10.5,30.47,SE,129,4.0,6.0,69,0.00,,---,0.00,VWS V14.01,2013-01-25 01:46:00,
2013-01-24 19:51:00,19.1,10.3,30.47,SE,124,9.0,9.0,68,0.00,,---,0.00,VWS V14.01,2013-01-25 01:51:00,
2013-01-24 19:56:00,19.1,9.3,30.47,ESE,121,4.0,7.0,65,0.00,,---,0.00,VWS V14.01,2013-01-25 01:56:00,
2013-01-24 20:01:00,19.2,8.3,30.46,ESE,121,8.0,9.0,62,0.00,,---,0.00,VWS V14.01,2013-01-25 02:01:00,
2013-01-24 20:06:00,19.3,6.6,30.46,ESE,122,15.0,15.0,57,0.00,,---,0.00,VWS V14.01,2013-01-25 02:06:00,
2013-01-24 20:11:00,19.4,5.9,30.46,SE,140,10.0,15.0,55,0.00,,---,0.00,VWS V14.01,2013-01-25 02:11:00,
2013-01-24 20:16:00,19.4,5.9,30.46,SSE,162,1.0,1.0,55,0.00,,---,0.00,VWS V14.01,2013-01-25 02:16:00,
2013-01-24 20:21:00,19.5,6.0,30.46,ESE,123,7.0,7.0,55,0.00,,---,0.00,VWS V14.01,2013-01-25 02:21:00,
2013-01-24 20:26:00,19.5,6.0,30.46,ESE,122,5.0,5.0,55,0.00,,---,0.00,VWS V14.01,2013-01-25 02:26:00,
2013-01-24 20:31:00,19.5,5.6,30.46,SSE,150,9.0,10.0,54,0.00,,---,0.00,VWS V14.01,2013-01-25 02:31:00,
2013-01-24 20:36:00,19.5,5.6,30.47,SSE,157,5.0,5.0,54,0.00,,---,0.00,VWS V14.01,2013-01-25 02:36:00,
2013-01-24 20:41:00,19.5,6.4,30.47,SSE,158,7.0,7.0,56,0.00,,---,0.00,VWS V14.01,2013-01-25 02:41:00,
2013-01-24 20:46:00,19.5,6.4,30.47,SE,136,6.0,7.0,56,0.00,,---,0.00,VWS V14.01,2013-01-25 02:46:00,
2013-01-24 20:51:00,19.5,6.0,30.47,SSE,148,10.0,10.0,55,0.00,,---,0.00,VWS V14.01,2013-01-25 02:51:00,
2013-01-24 20:56:00,19.5,6.8,30.46,SSE,163,4.0,7.0,57,0.00,,---,0.00,VWS V14.01,2013-01-25 02:56:00,
2013-01-24 21:01:00,19.5,6.8,30.46,SE,144,1.0,4.0,57,0.00,,---,0.00,VWS V14.01,2013-01-25 03:01:00,
2013-01-24 21:06:00,19.5,6.8,30.46,South,172,5.0,6.0,57,0.00,,---,0.00,VWS V14.01,2013-01-25 03:06:00,
2013-01-24 21:11:00,19.4,6.7,30.46,South,182,4.0,4.0,57,0.00,,---,0.00,VWS V14.01,2013-01-25 03:11:00,
2013-01-24 21:16:00,19.4,8.2,30.47,SSE,158,8.0,8.0,61,0.00,,---,0.00,VWS V14.01,2013-01-25 03:16:00,
2013-01-24 21:21:00,19.3,5.8,30.47,South,173,1.0,4.0,55,0.00,,---,0.00,VWS V14.01,2013-01-25 03:21:00,
2013-01-24 21:26:00,19.4,6.3,30.47,South,171,8.0,11.0,56,0.00,,---,0.00,VWS V14.01,2013-01-25 03:26:00,
2013-01-24 21:31:00,19.3,6.2,30.47,South,186,6.0,9.0,56,0.00,,---,0.00,VWS V14.01,2013-01-25 03:31:00,
2013-01-24 21:36:00,19.3,5.8,30.46,SSE,161,9.0,9.0,55,0.00,,---,0.00,VWS V14.01,2013-01-25 03:36:00,
2013-01-24 21:41:00,19.2,5.3,30.45,SE,128,4.0,4.0,54,0.00,,---,0.00,VWS V14.01,2013-01-25 03:41:00,
2013-01-24 21:46:00,19.2,5.3,30.45,SSE,161,1.0,5.0,54,0.00,,---,0.00,VWS V14.01,2013-01-25 03:46:00,
2013-01-24 21:50:00,19.1,5.2,30.44,SE,143,7.0,7.0,54,0.00,,---,0.00,VWS V14.01,2013-01-25 03:50:00,
2013-01-24 21:55:00,19.1,5.2,30.43,ESE,113,2.0,7.0,54,0.00,,---,0.00,VWS V14.01,2013-01-25 03:55:00,
2013-01-24 22:00:00,19.1,5.6,30.42,South,177,9.0,10.0,55,0.00,,---,0.00,VWS V14.01,2013-01-25 04:00:00,
2013-01-24 22:05:00,19.0,5.1,30.41,SSE,150,4.0,7.0,54,0.00,,---,0.00,VWS V14.01,2013-01-25 04:05:00,
2013-01-24 22:10:00,19.0,5.1,30.41,SSE,150,1.0,1.0,54,0.00,,---,0.00,VWS V14.01,2013-01-25 04:10:00,
2013-01-24 22:15:00,19.0,5.5,30.41,SSE,153,2.0,7.0,55,0.00,,---,0.00,VWS V14.01,2013-01-25 04:15:00,
2013-01-24 22:20:00,19.0,5.5,30.41,ESE,119,5.0,5.0,55,0.00,,---,0.00,VWS V14.01,2013-01-25 04:20:00,
2013-01-24 22:25:00,19.0,5.1,30.41,SSE,163,4.0,6.0,54,0.00,,---,0.00,VWS V14.01,2013-01-25 04:25:00,
2013-01-24 22:30:00,19.0,5.1,30.41,SE,125,6.0,8.0,54,0.00,,---,0.00,VWS V14.01,2013-01-25 04:30:00,
2013-01-24 22:35:00,19.0,5.5,30.42,SSE,168,8.0,8.0,55,0.00,,---,0.00,VWS V14.01,2013-01-25 04:35:00,
2013-01-24 22:40:00,19.0,5.5,30.41,South,183,8.0,8.0,55,0.00,,---,0.00,VWS V14.01,2013-01-25 04:40:00,
2013-01-24 22:45:00,19.0,5.5,30.41,SE,131,5.0,5.0,55,0.00,,---,0.00,VWS V14.01,2013-01-25 04:45:00,
2013-01-24 22:50:00,19.0,5.9,30.41,SE,133,5.0,5.0,56,0.00,,---,0.00,VWS V14.01,2013-01-25 04:50:00,
2013-01-24 22:55:00,19.0,5.9,30.41,SSE,166,2.0,2.0,56,0.00,,---,0.00,VWS V14.01,2013-01-25 04:55:00,
2013-01-24 23:00:00,19.0,5.9,30.41,SE,124,6.0,9.0,56,0.00,,---,0.00,VWS V14.01,2013-01-25 05:00:00,
2013-01-24 23:01:00,19.0,5.9,30.41,SE,136,8.0,10.0,56,0.00,,---,0.00,VWS V14.01,2013-01-25 05:01:00,
2013-01-24 23:03:00,19.1,6.0,30.41,ESE,102,6.0,11.0,56,0.00,,---,0.00,VWS V14.01,2013-01-25 05:03:00,
2013-01-24 23:08:00,19.1,6.0,30.40,SE,134,11.0,12.0,56,0.00,,---,0.00,VWS V14.01,2013-01-25 05:08:00,
2013-01-24 23:13:00,19.1,6.0,30.41,SSE,150,4.0,13.0,56,0.00,,---,0.00,VWS V14.01,2013-01-25 05:13:00,
2013-01-24 23:18:00,19.1,6.4,30.40,SE,132,4.0,6.0,57,0.00,,---,0.00,VWS V14.01,2013-01-25 05:18:00,
2013-01-24 23:23:00,19.1,6.4,30.40,SE,138,5.0,8.0,57,0.00,,---,0.00,VWS V14.01,2013-01-25 05:23:00,
2013-01-24 23:28:00,19.1,6.4,30.40,SSE,155,6.0,6.0,57,0.00,,---,0.00,VWS V14.01,2013-01-25 05:28:00,
2013-01-24 23:33:00,19.2,6.5,30.40,SSE,157,1.0,8.0,57,0.00,,---,0.00,VWS V14.01,2013-01-25 05:33:00,
2013-01-24 23:38:00,19.2,6.5,30.40,SSE,147,6.0,8.0,57,0.00,,---,0.00,VWS V14.01,2013-01-25 05:38:00,
2013-01-24 23:43:00,19.2,6.5,30.40,SSE,155,5.0,5.0,57,0.00,,---,0.00,VWS V14.01,2013-01-25 05:43:00,
2013-01-24 23:48:00,19.3,6.2,30.41,SSE,149,6.0,11.0,56,0.00,,---,0.00,VWS V14.01,2013-01-25 05:48:00,
2013-01-24 23:53:00,19.3,6.6,30.41,South,169,2.0,6.0,57,0.00,,---,0.00,VWS V14.01,2013-01-25 05:53:00,
2013-01-24 23:58:00,19.3,6.6,30.40,South,175,6.0,9.0,57,0.00,,---,0.00,VWS V14.01,2013-01-25 05:58:00,